Regional Weather Roundup
Issued by NWS State College, PA

Home | Current Version | Previous Version | Graphics & Text | Print | Product List | Glossary Off
Versions: 1 2 3 4 5 6 7 8 9 10 11 12 13 14 15 16 17 18 19 20 21 22 23 24 25 26 27 28 29 30 31 32 33 34 35 36 37 38 39 40 41 42 43 44 45 46 47 48 49 50

000
ASUS41 KCTP 250803
RWRCTP

REGIONAL WEATHER ROUNDUP
NATIONAL WEATHER SERVICE STATE COLLEGE PA
400 AM EDT WED MAY 25 2016

Note: "fair" indicates few or no clouds below 12,000 feet with no
significant weather and/or obstructions to visibility.

* = STATION THAT DOES NOT REPORT PRECIPITATION /E.G. RAIN...SNOW...ETC/
    THUNDER OR FOG.

PAZ002>004-007>009-013>016-020>023-029>032-250900-
WESTERN PENNSYLVANIA

CITY           SKY/WX    TMP DP  RH WIND       PRES   REMARKS
ERIE           CLEAR     64  42  44 S8        30.05R
MEADVILLE      CLEAR     57  44  62 S7        30.09R
FRANKLIN*      CLEAR     55  43  62 SW7       30.12S
NEW CASTLE     FAIR      51  49  92 CALM      30.11R
BEAVER COUNTY  NOT AVBL
BUTLER*        CLEAR    N/A N/A N/A CALM      30.13F
PITTSBURGH INT CLEAR     60  48  64 W3        30.11R
PITTSBURGH     CLEAR     59  48  67 S7        30.11R
INDIANA*       PTCLDY    52  50  93 CALM      30.16R
LATROBE        CLEAR     50  50 100 CALM      30.14R
WASHINGTON CO* CLEAR     50  46  87 CALM      30.13S
$$

PAZ004>006-010>012-017>019-024>028-033>037-041-042-045-046-049>053-250900-
CENTRAL PENNSYLVANIA

CITY           SKY/WX    TMP DP  RH WIND       PRES   REMARKS
BRADFORD       CLEAR     41  37  86 CALM      30.11S
DUBOIS         CLEAR     53  39  59 CALM      30.11R
CLEARFIELD     CLEAR     50  45  83 CALM      30.12R
JOHNSTOWN      CLEAR     57  44  62 W6        30.15R
ALTOONA        CLEAR     59  48  67 S6        30.12S
STATE COLLEGE  CLEAR     57  45  64 W7        30.10R
WILLIAMSPORT   CLEAR     49  43  80 CALM      30.06R
SELINSGROVE    CLEAR     49  47  93 CALM      30.07R
FT INDIANTOWN  CLEAR     49  49  99 NE1       30.06R
CAPITAL CITY   CLEAR     63  48  58 CALM      30.06S
HARRISBURG     PTCLDY    55  48  77 CALM      30.06R
YORK           CLEAR     58  49  72 CALM      30.07R
$$

PAZ038>040-043-044-047-048-054-055-060>062-067>071-250900-
EASTERN PENNSYLVANIA

CITY           SKY/WX    TMP DP  RH WIND       PRES   REMARKS
SCRANTON       CLEAR     52  42  69 E3        30.05S
MOUNT POCONO   CLEAR     42  42 100 NW5       30.08R
ALLENTOWN      CLEAR     54  50  86 CALM      30.05R
QUAKERTOWN*    SUNNY     48  48 100 CALM      30.06S
READING        CLEAR     54  50  86 CALM      30.05R FOG
LANCASTER      CLEAR     56  48  74 W6        30.06R
COATESVILLE    SUNNY     59  48  67 CALM      30.08S
POTTSTOWN      CLEAR     52  51  97 CALM      30.07R
BLUE BELL      CLEAR     52  52 100 CALM      30.05R
DOYLESTOWN     CLEAR     52  50  93 CALM      30.04R
WILLOW GROVE   NOT AVBL
NORTH PHILA      N/A     58  53  84 W3        30.05R
PHILADELPHIA   CLEAR     61  52  72 W3        30.06R
$$




USA.gov is the U.S. government's official web portal to all federal, state and local government web resources and services.